Weather History for KGLW - March, 2013

Change the Weather History Date:

Thursday, March 21, 2013

  Actual Average (KBWG) Record (KBWG)
Temperature  
Mean Temperature 28 °F 50 °F  
Max Temperature 38 °F 62 °F 91 °F (1907)
Min Temperature 17 °F 38 °F 20 °F (2013)
Degree Days  
Heating Degree Days 38 15  
Month to date heating degree days 384  
Since 1 July heating degree days 3582  
Cooling Degree Days 0 0  
Month to date cooling degree days 0  
Year to date cooling degree days 0  
Moisture  
Dew Point 14 °F    
Average Humidity 60    
Maximum Humidity 88    
Minimum Humidity 36    
Precipitation  
Precipitation 0.00 in 0.15 in 1.40 in (1913)
Month to date precipitation 2.92  
Year to date precipitation 10.49  
Snow  
Snow 0.00 in 0.10 in 0.10 in (1914)
Month to date snowfall 0.8  
Since 1 July snowfall 8.6  
Snow Depth -    
Sea Level Pressure  
Sea Level Pressure 30.03 in    
Wind  
Wind Speed 3 mph (WNW)    
Max Wind Speed 13 mph    
Max Gust Speed 18 mph    
Visibility 10 miles    
Events      
T = Trace of Precipitation, MM = Missing Value Source: NWS Daily Summary

Daily Weather History Graph

Daily Weather History Graph

Search for Another Location

Airport or City:

Trip Planner

Search our weather history database for the weather conditions in past years. The results will help you decide how hot, cold, wet, or windy it might be!

Date:

Astronomy

Mar. 21, 2013 Rise Set
Actual Time 6:45 AM CDT 6:56 PM CDT
Civil Twilight 6:19 AM CDT 7:22 PM CDT
Nautical Twilight 5:49 AM CDT 7:53 PM CDT
Astronomical Twilight 5:18 AM CDT 8:23 PM CDT
Moon 1:32 PM CDT (3/21) 2:59 AM CDT (3/21)
Length of Visible Light 13h 03m
Length of Day
12h 11m
Waxing Gibbous, 69% of the Moon is Illuminated
Mar 21
Waxing Gibbous
Mar 27
Full
Apr 2
Last Quarter
Apr 10
New
Apr 18
First Quarter

Hourly Weather History & Observations

Time (CDT) Temp. Windchill Dew Point Humidity Pressure Visibility Wind Dir Wind Speed Gust Speed Precip Events Conditions
12:15 AM 24.1 °F 19.7 °F 12.7 °F 62% 30.07 in 10.0 mi NNW 3.5 mph - N/A   Clear
12:35 AM 23.5 °F - 12.7 °F 63% 30.08 in 10.0 mi Calm Calm - N/A   Clear
12:55 AM 22.8 °F - 12.6 °F 65% 30.06 in 10.0 mi Calm Calm - N/A   Clear
1:15 AM 21.0 °F - 13.1 °F 71% 30.06 in 10.0 mi Calm Calm - N/A   Clear
1:55 AM 20.1 °F - 13.5 °F 75% 30.05 in 10.0 mi Calm Calm - N/A   Clear
2:15 AM 20.5 °F - 13.1 °F 73% 30.05 in 10.0 mi Calm Calm - N/A   Clear
2:35 AM 20.1 °F - 13.6 °F 76% 30.05 in 10.0 mi Calm Calm - N/A   Clear
2:55 AM 19.8 °F - 14.2 °F 79% 30.04 in 10.0 mi Calm Calm - N/A   Clear
3:15 AM 19.9 °F - 13.8 °F 77% 30.04 in 10.0 mi Calm Calm - N/A   Clear
3:35 AM 19.8 °F - 13.5 °F 77% 30.03 in 10.0 mi Calm Calm - N/A   Clear
3:55 AM 19.6 °F - 13.8 °F 78% 30.02 in 10.0 mi Calm Calm - N/A   Clear
4:15 AM 19.0 °F - 13.5 °F 79% 30.02 in 10.0 mi Calm Calm - N/A   Clear
4:35 AM 17.6 °F - 14.4 °F 87% 30.01 in 10.0 mi Calm Calm - N/A   Clear
4:55 AM 18.5 °F - 15.3 °F 87% 30.02 in 10.0 mi Calm Calm - N/A   Clear
5:15 AM 18.3 °F - 14.9 °F 86% 30.02 in 10.0 mi Calm Calm - N/A   Clear
5:35 AM 18.0 °F - 14.4 °F 86% 30.01 in 10.0 mi Calm Calm - N/A   Clear
5:55 AM 18.0 °F - 15.1 °F 88% 30.01 in 10.0 mi Calm Calm - N/A   Clear
6:15 AM 18.0 °F - 14.0 °F 84% 30.02 in 10.0 mi Calm Calm - N/A   Clear
6:35 AM 17.8 °F - 14.2 °F 86% 30.02 in 10.0 mi Calm Calm - N/A   Clear
6:55 AM 17.8 °F - 14.5 °F 87% 30.02 in 10.0 mi Calm Calm - N/A   Clear
7:15 AM 18.1 °F - 14.7 °F 86% 30.02 in 10.0 mi Calm Calm - N/A   Clear
7:35 AM 19.8 °F 14.7 °F 16.7 °F 88% 30.03 in 10.0 mi West 3.5 mph - N/A   Clear
7:55 AM 23.0 °F 14.7 °F 17.4 °F 79% 30.04 in 10.0 mi West 6.9 mph - N/A   Clear
8:15 AM 24.8 °F 16.9 °F 16.5 °F 71% 30.04 in 10.0 mi WNW 6.9 mph - N/A   Clear
8:35 AM 25.9 °F 19.2 °F 16.7 °F 68% 30.05 in 10.0 mi NW 5.8 mph - N/A   Clear
8:55 AM 26.4 °F 17.3 °F 16.3 °F 66% 30.05 in 10.0 mi WNW 9.2 mph - N/A   Clear
9:15 AM 27.0 °F 18.7 °F 15.1 °F 61% 30.06 in 10.0 mi NW 8.1 mph - N/A   Clear
9:35 AM 28.2 °F 20.2 °F 13.8 °F 55% 30.06 in 10.0 mi WNW 8.1 mph 16.1 mph N/A   Scattered Clouds
10:15 AM 29.7 °F 22.0 °F 13.1 °F 50% 30.07 in 10.0 mi WNW 8.1 mph - N/A   Scattered Clouds
10:35 AM 29.3 °F 20.8 °F 12.4 °F 49% 30.07 in 10.0 mi NW 9.2 mph 16.1 mph N/A   Scattered Clouds
11:35 AM 32.2 °F 26.7 °F 12.4 °F 44% 30.06 in 10.0 mi WSW 5.8 mph - N/A   Mostly Cloudy
11:55 AM 32.0 °F 24.2 °F 12.2 °F 44% 30.06 in 10.0 mi WNW 9.2 mph 17.3 mph N/A   Mostly Cloudy
12:15 PM 32.9 °F 24.7 °F 13.1 °F 44% 30.05 in 10.0 mi West 10.4 mph - N/A   Mostly Cloudy
12:35 PM 34.2 °F 27.5 °F 14.4 °F 44% 30.05 in 10.0 mi WSW 8.1 mph - N/A   Mostly Cloudy
12:55 PM 34.7 °F 25.9 °F 13.8 °F 42% 30.04 in 10.0 mi WNW 12.7 mph 17.3 mph N/A   Scattered Clouds
1:15 PM 34.2 °F 25.7 °F 13.3 °F 42% 30.04 in 10.0 mi WNW 11.5 mph - N/A   Scattered Clouds
1:35 PM 35.2 °F 28.1 °F 13.1 °F 40% 30.04 in 10.0 mi WNW 9.2 mph - N/A   Scattered Clouds
1:55 PM 36.0 °F 27.5 °F 12.9 °F 39% 30.03 in 10.0 mi WNW 12.7 mph 18.4 mph N/A   Clear
2:15 PM 35.8 °F 28.8 °F 12.4 °F 38% 30.03 in 10.0 mi West 9.2 mph - N/A   Clear
2:35 PM 36.1 °F 32.3 °F 12.6 °F 38% 30.02 in 10.0 mi West 4.6 mph 16.1 mph N/A   Scattered Clouds
2:55 PM 37.6 °F 33.1 °F 14.5 °F 39% 30.01 in 10.0 mi SSW 5.8 mph 9.2 mph N/A   Mostly Cloudy
3:15 PM 37.6 °F 34.0 °F 13.8 °F 38% 30.01 in 10.0 mi West 4.6 mph - N/A   Mostly Cloudy
3:55 PM 38.1 °F 32.3 °F 13.5 °F 36% 30.01 in 10.0 mi West 8.1 mph - N/A   Clear
4:15 PM 37.8 °F 31.8 °F 13.1 °F 36% 30.00 in 10.0 mi West 8.1 mph - N/A   Clear
4:35 PM 37.6 °F 34.0 °F 13.6 °F 38% 29.99 in 10.0 mi WNW 4.6 mph - N/A   Clear
4:55 PM 37.9 °F 35.5 °F 13.3 °F 36% 29.99 in 10.0 mi WSW 3.5 mph - N/A   Clear
5:15 PM 37.9 °F 35.5 °F 13.6 °F 37% 29.98 in 10.0 mi SSW 3.5 mph - N/A   Clear
5:35 PM 37.8 °F 35.3 °F 13.6 °F 37% 29.98 in 10.0 mi NNW 3.5 mph - N/A   Clear
5:55 PM 36.7 °F - 13.1 °F 38% 29.98 in 10.0 mi Calm Calm - N/A   Clear
6:15 PM 35.6 °F 31.7 °F 13.5 °F 40% 29.98 in 10.0 mi SW 4.6 mph - N/A   Clear
6:35 PM 34.3 °F - 14.0 °F 43% 29.99 in 10.0 mi Calm Calm - N/A   Clear
6:55 PM 33.3 °F - 14.2 °F 46% 29.99 in 10.0 mi Calm Calm - N/A   Clear
7:15 PM 32.7 °F - 14.7 °F 48% 30.00 in 10.0 mi Calm Calm - N/A   Clear
7:35 PM 32.2 °F - 16.7 °F 53% 30.00 in 10.0 mi Calm Calm - N/A   Clear
7:55 PM 32.4 °F - 16.5 °F 52% 30.01 in 10.0 mi Calm Calm - N/A   Clear
8:15 PM 31.5 °F - 17.8 °F 57% 30.02 in 10.0 mi Calm Calm - N/A   Clear
8:35 PM 30.0 °F - 17.1 °F 59% 30.02 in 10.0 mi Calm Calm - N/A   Clear
8:55 PM 30.4 °F - 16.0 °F 55% 30.03 in 10.0 mi Calm Calm - N/A   Clear
9:15 PM 29.8 °F - 16.5 °F 58% 30.03 in 10.0 mi Calm Calm - N/A   Clear
9:35 PM 29.5 °F 25.9 °F 16.2 °F 58% 30.04 in 10.0 mi NNE 3.5 mph - N/A   Clear
9:55 PM 29.3 °F - 16.3 °F 58% 30.04 in 10.0 mi Calm Calm - N/A   Clear
10:15 PM 28.9 °F - 16.7 °F 60% 30.04 in 10.0 mi Calm Calm - N/A   Clear
10:35 PM 28.0 °F - 16.7 °F 62% 30.04 in 10.0 mi Calm Calm - N/A   Clear
10:55 PM 26.6 °F - 17.1 °F 67% 30.03 in 10.0 mi Calm Calm - N/A   Clear
11:15 PM 26.6 °F - 16.7 °F 66% 30.04 in 10.0 mi Calm Calm - N/A   Clear
11:35 PM 27.1 °F 23.2 °F 16.2 °F 63% 30.04 in 10.0 mi ENE 3.5 mph - N/A   Clear
11:55 PM 27.1 °F 23.2 °F 16.0 °F 63% 30.04 in 10.0 mi ENE 3.5 mph - N/A   Clear